Location: Cactus School
(34.5700°N, 118.0931°W)
Time: 01:51:31
(UTC-07:00)

DIWATA 2B (PO-101) - Visible Passes

Search period start: 26 May 2024 00:00
Search period end: 05 June 2024 00:00
Orbit: 574 x 589 km, 98.1° (Epoch: 25 May)

Date Brightness Start Highest point End Pass type
(mag) Time Alt. Az. Time Alt. Az. Time Alt. Az.
26 May ? 04:06:27 10° SSE 04:10:24 48° ENE 04:14:21 10° N visible
27 May ? 04:11:48 10° SSE 04:15:49 56° ENE 04:19:50 10° N visible
28 May ? 04:17:10 10° SSE 04:21:14 66° ENE 04:25:18 10° N visible
29 May ? 04:22:33 10° SSE 04:26:38 78° ENE 04:30:45 10° N visible
30 May ? 04:27:57 10° SSE 04:32:03 90° W 04:36:10 10° NNW visible
31 May ? 04:33:22 10° S 04:37:28 77° WSW 04:41:34 10° NNW visible
01 Jun ? 04:38:48 10° S 04:42:52 66° WSW 04:46:56 10° NNW visible
02 Jun ? 04:44:15 10° S 04:48:15 56° W 04:52:17 10° NNW visible
03 Jun ? 03:17:30 10° E 03:18:48 11° ENE 03:20:08 10° NE visible
03 Jun ? 04:49:43 10° S 04:53:39 47° W 04:57:37 10° NNW visible
04 Jun ? 03:22:13 10° E 03:24:08 13° ENE 03:26:03 10° NE visible
04 Jun ? 04:55:12 10° S 04:59:03 40° W 05:02:55 10° NNW visible
